Mekoryuk, AK

4:19 AM AKST on February 09, 2016 (GMT -0900)
Mekoryuk

Weather History for PAMY - February, 2014

Change the Weather History Date:

Sunday, February 16, 2014

  Actual Average Record
Temperature  
Mean Temperature 3 °F -  
Max Temperature 6 °F 20 °F 33 °F (2000)
Min Temperature 0 °F 11 °F -20 °F (1984)
Degree Days  
Heating Degree Days 62    
Moisture  
Dew Point -4 °F    
Average Humidity 71    
Maximum Humidity 78    
Minimum Humidity 61    
Precipitation  
Precipitation 0.00 in - - ()
Sea Level Pressure  
Sea Level Pressure 29.15 in    
Wind  
Wind Speed 15 mph (North)    
Max Wind Speed 22 mph    
Max Gust Speed 26 mph    
Visibility 7 miles    
Events      
Averages and records for this station are not official NWS values.
T = Trace of Precipitation, MM = Missing Value Source: NWS Daily Summary

Daily Weather History Graph

Daily Weather History Graph

Search for Another Location

Airport or City:

Trip Planner

Search our weather history database for the weather conditions in past years. The results will help you decide how hot, cold, wet, or windy it might be!

Date:

Astronomy

Feb. 16, 2014 Rise Set
Actual Time 9:40 AM AKST 6:58 PM AKST
Civil Twilight 8:56 AM AKST 7:42 PM AKST
Nautical Twilight 8:07 AM AKST 8:31 PM AKST
Astronomical Twilight 7:18 AM AKST 9:20 PM AKST
Moon 9:53 PM AKST (2/16) 9:38 AM AKST (2/16)
Length of Visible Light 10h 46m
Length of Day
9h 17m
Full, 97% of the Moon is Illuminated
Feb 16
Full
Feb 22
Last Quarter
Feb 28
New
Mar 8
First Quarter
Mar 16
Full

Hourly Weather History & Observations

Time (AKST) Temp. Windchill Dew Point Humidity Pressure Visibility Wind Dir Wind Speed Gust Speed Precip Events Conditions
12:16 AM 3.2 °F -17.6 °F -2.2 °F 78% 29.11 in 9.0 mi North 19.6 mph - N/A   Mostly Cloudy
12:36 AM 3.2 °F -17.1 °F -2.2 °F 78% 29.11 in 5.0 mi North 18.4 mph 24.2 mph N/A   Overcast
12:56 AM 3.2 °F -15.9 °F -2.2 °F 78% 29.11 in 10.0 mi NNW 16.1 mph - N/A   Mostly Cloudy
1:16 AM 3.2 °F -15.9 °F -4.0 °F 72% 29.11 in 10.0 mi NNW 16.1 mph - N/A   Partly Cloudy
1:36 AM 3.2 °F -15.9 °F -4.0 °F 72% 29.11 in 10.0 mi NNW 16.1 mph - N/A   Clear
1:56 AM 3.2 °F -15.3 °F -4.0 °F 72% 29.11 in 10.0 mi NNW 15.0 mph 20.7 mph N/A   Partly Cloudy
2:16 AM 3.2 °F -15.9 °F -2.2 °F 78% 29.11 in 10.0 mi NNW 16.1 mph - N/A   Mostly Cloudy
2:36 AM 3.2 °F -18.1 °F -2.2 °F 78% 29.11 in 10.0 mi NNW 20.7 mph - N/A   Overcast
2:56 AM 5.0 °F -14.2 °F -2.2 °F 72% 29.11 in 5.0 mi NNW 17.3 mph - N/A   Overcast
3:16 AM 5.0 °F -16.2 °F -2.2 °F 72% 29.11 in 1.5 mi NNW 21.9 mph 26.5 mph N/A   Overcast
3:36 AM 3.2 °F -17.1 °F -2.2 °F 78% 29.12 in 2.5 mi North 18.4 mph - N/A   Overcast
3:56 AM 3.2 °F -17.6 °F -4.0 °F 72% 29.11 in 10.0 mi North 19.6 mph 24.2 mph N/A   Overcast
4:16 AM 3.2 °F -17.6 °F -4.0 °F 72% 29.11 in 10.0 mi North 19.6 mph - N/A   Overcast
4:36 AM 5.0 °F -14.7 °F -2.2 °F 72% 29.11 in 2.0 mi North 18.4 mph - N/A   Overcast
4:56 AM 5.0 °F -14.2 °F -2.2 °F 72% 29.11 in 1.5 mi North 17.3 mph - N/A   Overcast
5:16 AM 3.2 °F -17.6 °F -2.2 °F 78% 29.10 in 2.0 mi NNW 19.6 mph - N/A   Overcast
5:36 AM 3.2 °F -17.1 °F -2.2 °F 78% 29.11 in 2.0 mi NNW 18.4 mph - N/A   Overcast
5:56 AM 3.2 °F -17.1 °F -4.0 °F 72% 29.11 in 2.5 mi NNW 18.4 mph - N/A   Overcast
6:16 AM 3.2 °F -17.6 °F -4.0 °F 72% 29.10 in 3.0 mi NNW 19.6 mph - N/A   Overcast
6:36 AM 3.2 °F -17.1 °F -5.8 °F 66% 29.10 in 1.8 mi NNW 18.4 mph - N/A   Overcast
6:56 AM 3.2 °F -17.6 °F -5.8 °F 66% 29.10 in 2.5 mi NNW 19.6 mph 23.0 mph N/A   Overcast
7:16 AM 3.2 °F -17.6 °F -5.8 °F 66% 29.10 in 4.0 mi NNW 19.6 mph 23.0 mph N/A   Overcast
7:36 AM 1.4 °F -18.8 °F -5.8 °F 72% 29.10 in 1.5 mi NNW 17.3 mph - N/A   Overcast
7:56 AM 3.2 °F -15.3 °F -4.0 °F 72% 29.10 in 0.8 mi North 15.0 mph - N/A   Overcast
8:16 AM 1.4 °F -19.4 °F -5.8 °F 72% 29.10 in 1.0 mi NNW 18.4 mph - N/A   Overcast
8:36 AM 1.4 °F -18.8 °F -5.8 °F 72% 29.10 in 2.5 mi NW 17.3 mph - N/A   Overcast
8:56 AM 1.4 °F -16.9 °F -5.8 °F 72% 29.11 in 3.0 mi NNW 13.8 mph - N/A   Overcast
9:16 AM 3.2 °F -15.9 °F -5.8 °F 66% 29.11 in 3.0 mi NNW 16.1 mph - N/A   Overcast
9:36 AM 3.2 °F -15.9 °F -4.0 °F 72% 29.11 in 1.5 mi NNW 16.1 mph - N/A   Overcast
9:56 AM 3.2 °F -14.6 °F -4.0 °F 72% 29.11 in 3.0 mi NNW 13.8 mph - N/A   Overcast
10:16 AM 3.2 °F -16.5 °F -4.0 °F 72% 29.10 in 1.8 mi NNW 17.3 mph - N/A   Overcast
10:36 AM 3.2 °F -16.5 °F -4.0 °F 72% 29.10 in 3.0 mi NNW 17.3 mph - N/A   Overcast
10:56 AM 3.2 °F -13.1 °F -2.2 °F 78% 29.11 in 4.0 mi NNW 11.5 mph - N/A   Overcast
11:16 AM 3.2 °F -13.1 °F -2.2 °F 78% 29.11 in 7.0 mi North 11.5 mph - N/A   Overcast
11:36 AM 5.0 °F -10.8 °F -2.2 °F 72% 29.11 in 5.0 mi NNW 11.5 mph - N/A   Overcast
11:56 AM 5.0 °F -10.8 °F -0.4 °F 78% 29.12 in 2.5 mi NNW 11.5 mph - N/A   Mostly Cloudy
12:16 PM 6.8 °F -9.3 °F -0.4 °F 72% 29.12 in 4.0 mi NNW 12.7 mph - N/A   Overcast
12:36 PM 6.8 °F -8.6 °F -0.4 °F 72% 29.12 in 6.0 mi North 11.5 mph - N/A   Overcast
12:56 PM 6.8 °F -11.3 °F -2.2 °F 67% 29.13 in 6.0 mi NNE 16.1 mph - N/A   Overcast
1:16 PM 6.8 °F -10.7 °F -2.2 °F 67% 29.13 in 10.0 mi NNE 15.0 mph - N/A   Overcast
1:36 PM 6.8 °F -11.3 °F -2.2 °F 67% 29.13 in 3.0 mi NNE 16.1 mph 23.0 mph N/A   Overcast
1:56 PM 6.8 °F -11.3 °F -2.2 °F 67% 29.14 in 5.0 mi NNE 16.1 mph - N/A   Overcast
2:16 PM 6.8 °F -11.3 °F -4.0 °F 61% 29.15 in 4.0 mi NE 16.1 mph - N/A   Overcast
2:36 PM 6.8 °F -10.0 °F -2.2 °F 67% 29.15 in 5.0 mi NNE 13.8 mph - N/A   Overcast
2:56 PM 6.8 °F -10.0 °F -2.2 °F 67% 29.16 in 10.0 mi NE 13.8 mph - N/A   Overcast
3:16 PM 5.0 °F -10.8 °F -5.8 °F 61% 29.16 in 10.0 mi NE 11.5 mph - N/A   Scattered Clouds
3:36 PM 6.8 °F -9.3 °F -2.2 °F 67% 29.16 in 10.0 mi NE 12.7 mph - N/A   Scattered Clouds
3:56 PM 6.8 °F -9.3 °F -2.2 °F 67% 29.17 in 9.0 mi NNE 12.7 mph - N/A   Overcast
4:16 PM 6.8 °F -7.8 °F -2.2 °F 67% 29.17 in 9.0 mi NNE 10.4 mph - N/A   Mostly Cloudy
4:36 PM 6.8 °F -8.6 °F -2.2 °F 67% 29.18 in 10.0 mi NNE 11.5 mph - N/A   Mostly Cloudy
4:56 PM 6.8 °F -6.9 °F -4.0 °F 61% 29.18 in 10.0 mi NNE 9.2 mph - N/A   Scattered Clouds
5:16 PM 5.0 °F -8.1 °F -4.0 °F 66% 29.19 in 10.0 mi NNE 8.1 mph - N/A   Partly Cloudy
5:36 PM 5.0 °F -8.1 °F -2.2 °F 72% 29.20 in 10.0 mi NNE 8.1 mph - N/A   Mostly Cloudy
5:56 PM 5.0 °F -9.1 °F -4.0 °F 66% 29.20 in 10.0 mi NNE 9.2 mph - N/A   Scattered Clouds
6:16 PM 3.2 °F -11.3 °F -4.0 °F 72% 29.20 in 10.0 mi NNE 9.2 mph - N/A   Partly Cloudy
6:36 PM 3.2 °F -11.3 °F -4.0 °F 72% 29.21 in 10.0 mi NNE 9.2 mph - N/A   Partly Cloudy
6:56 PM 3.2 °F -13.1 °F -4.0 °F 72% 29.22 in 10.0 mi NNE 11.5 mph - N/A   Mostly Cloudy
7:16 PM 3.2 °F -11.3 °F -4.0 °F 72% 29.22 in 10.0 mi NNE 9.2 mph - N/A   Mostly Cloudy
7:36 PM 3.2 °F -11.3 °F -4.0 °F 72% 29.22 in 10.0 mi NNE 9.2 mph - N/A   Mostly Cloudy
7:56 PM 5.0 °F -8.1 °F -2.2 °F 72% 29.23 in 10.0 mi NE 8.1 mph - N/A   Overcast
8:16 PM 3.2 °F -10.3 °F -4.0 °F 72% 29.23 in 10.0 mi NNE 8.1 mph - N/A   Overcast
8:36 PM 3.2 °F -10.3 °F -4.0 °F 72% 29.23 in 10.0 mi NNE 8.1 mph - N/A   Mostly Cloudy
8:56 PM 3.2 °F -7.8 °F -4.0 °F 72% 29.24 in 10.0 mi NE 5.8 mph - N/A   Mostly Cloudy
9:16 PM 3.2 °F -7.8 °F -5.8 °F 66% 29.25 in 10.0 mi NE 5.8 mph - N/A   Scattered Clouds
9:36 PM 1.4 °F -8.3 °F -5.8 °F 72% - 10.0 mi NNE 4.6 mph - N/A   Partly Cloudy
9:56 PM 1.4 °F -8.3 °F -5.8 °F 72% 29.25 in 10.0 mi NNE 4.6 mph - N/A   Clear
10:16 PM 1.4 °F -8.3 °F -5.8 °F 72% 29.25 in 10.0 mi NNE 4.6 mph - N/A   Clear
10:36 PM 1.4 °F -8.3 °F -5.8 °F 72% 29.26 in 10.0 mi North 4.6 mph - N/A   Clear
10:56 PM -0.4 °F - -5.8 °F 78% 29.27 in 10.0 mi Calm Calm - N/A   Scattered Clouds
11:16 PM 1.4 °F -8.3 °F -7.6 °F 66% 29.27 in 10.0 mi North 4.6 mph - N/A   Partly Cloudy
11:36 PM 1.4 °F - -5.8 °F 72% 29.28 in 10.0 mi Calm Calm - N/A   Clear
11:56 PM 1.4 °F - -5.8 °F 72% 29.28 in 10.0 mi Calm Calm - N/A   Clear